Regional Weather Roundup
Issued by NWS

Home | Current Version | Previous Version | Graphics & Text | Print | Product List | Glossary On
Versions: 1 2 3 4 5 6 7 8 9 10 11 12 13 14 15 16 17 18 19 20 21 22 23 24 25 26 27
000
ASUS45 KBOI 241510
RWRID

IDAHO REGIONAL WEATHER ROUNDUP
NATIONAL WEATHER SERVICE BOISE ID
900 AM MDT TUE MAY 24 2016

NOTE: "FAIR" INDICATES FEW OR NO CLOUDS BELOW 12000 FEET
WITH NO SIGNIFICANT WEATHER AND/OR OBSTRUCTIONS TO VISIBILITY

IDZ012-014-241600-
SOUTHWEST IDAHO


CITY           SKY/WX    TMP DP  RH WIND       PRES   REMARKS
BOISE          PTSUNNY   52  41  66 W7        29.86S
CALDWELL       CLOUDY    53  42  66 W7        29.88R
MOUNTAIN HOME  PTSUNNY   57  42  56 N9        29.85R
$$

IDZ016-017-241600-
SOUTHCENTRAL IDAHO


CITY           SKY/WX    TMP DP  RH WIND       PRES   REMARKS
BURLEY         PTSUNNY   50  42  74 CALM      29.85S
JEROME         CLOUDY    48  41  76 S3        29.87R
TWIN FALLS     CLOUDY    51  39  63 SW10      29.87R
$$

IDZ019>023-241600-
SOUTHEAST IDAHO


CITY           SKY/WX    TMP DP  RH WIND       PRES   REMARKS
IDAHO FALLS    SUNNY     51  39  63 N7        29.88R
POCATELLO      MOSUNNY   48  39  71 CALM      29.87S
REXBURG        SUNNY     47  37  68 CALM      29.88S
$$

IDZ006-010-011-018-031-032-241600-
CENTRAL IDAHO MOUNTAINS


CITY           SKY/WX    TMP DP  RH WIND       PRES   REMARKS
MCCALL         PTSUNNY   40  36  86 CALM      29.90R
HAILEY         PTSUNNY   46  32  57 NW12      29.90S
STANLEY          N/A     35  29  78 CALM      29.95R
SALMON         CLOUDY    43  36  75 CALM      29.92R
CHALLIS        PTSUNNY   42  31  64 CALM      29.92S
$$

IDZ002-004-006-007-026-241600-
NORTHERN IDAHO


CITY           SKY/WX    TMP DP  RH WIND       PRES   REMARKS
LEWISTON       LGT RAIN  52  48  86 CALM      29.91R
LOWELL           N/A     49  46  90 CALM      29.95S
COEUR D`ALENE  CLOUDY    48  46  93 CALM      29.90R
MULLAN PASS    LGT RAIN  36  35  96 CALM      29.91R VSB 1/4
$$




USA.gov is the U.S. government's official web portal to all federal, state and local government web resources and services.